Location: Horowhenua
(40.7500°S, 175.3333°E)
Time: 02:24:31
(UTC+00:00)

Meteor 2-6 Rocket - Pass Details

Date: 28 January 2023
Orbit: 807 x 913 km, 81.3° (Epoch: 20 March)

Event Time Altitude Azimuth Distance (km) Brightness Sun altitude
Exits shadow 12:10:44 73° 210° (SSW) 963 4.4 -30.9°
Drops below altitude 10° 12:16:16 10° 173° (S) 2,620 7.6 -31.0°
Sets 12:18:45 0° 171° (S) 3,558 8.5 -31.0°
